DW2047 Weather Reports


time (UTC)temp
C
wind
direction
speed
KPH
gust
KPH
rain 1hr
cm
rain 24hr
cm
rain mn
cm
humidity
%
barometer
mb
20260503000601 24 71 1.6 0.0 0.00 0.00 0.00 40 1020.7
20260502235523 25 71 1.6 0.0 0.00 0.00 0.00 39 1020.6
20260502235103 25 71 1.6 0.0 0.00 0.00 0.00 39 1020.6
20260502234553 25 71 1.6 0.0 0.00 0.00 0.00 38 1020.6
20260502234029 25 69 1.6 0.0 0.00 0.00 0.00 40 1020.7
20260502233605 25 69 1.6 0.0 0.00 0.00 0.00 38 1020.5
20260502233009 25 69 3.2 0.0 0.00 0.00 0.00 39 1020.6
20260502232544 25 69 3.2 0.0 0.00 0.00 0.00 37 1020.6
20260502232023 25 71 1.6 0.0 0.00 0.00 0.00 37 1020.6
20260502231528 25 69 1.6 0.0 0.00 0.00 0.00 38 1020.6
20260502231002 25 69 3.2 0.0 0.00 0.00 0.00 36 1020.6
20260502230539 25 68 3.2 0.0 0.00 0.00 0.00 40 1020.6
20260502230042 25 67 1.6 0.0 0.00 0.00 0.00 39 1020.6
20260502225516 24 67 1.6 0.0 0.00 0.00 0.00 40 1020.6
20260502225050 24 67 1.6 0.0 0.00 0.00 0.00 40 1020.6
20260502224557 24 67 1.6 0.0 0.00 0.00 0.00 42 1020.6
20260502224026 25 71 1.6 0.0 0.00 0.00 0.00 41 1020.5
20260502223606 25 71 1.6 0.0 0.00 0.00 0.00 41 1020.6
20260502223009 25 71 1.6 0.0 0.00 0.00 0.00 40 1020.7
20260502222547 25 69 1.6 0.0 0.00 0.00 0.00 38 1020.7
20260502222014 25 62 1.6 0.0 0.00 0.00 0.00 40 1020.8
20260502221519 25 62 3.2 0.0 0.00 0.00 0.00 40 1020.8
20260502221058 25 75 3.2 0.0 0.00 0.00 0.00 42 1020.8
20260502220528 24 64 1.6 0.0 0.00 0.00 0.00 41 1020.8
20260502220031 24 75 1.6 0.0 0.00 0.00 0.00 41 1020.8
20260502215505 24 76 3.2 0.0 0.00 0.00 0.00 42 1020.8
20260502215038 24 54 1.6 0.0 0.00 0.00 0.00 43 1020.8
20260502214552 25 36 1.6 0.0 0.00 0.00 0.00 43 1020.9
20260502214025 25 344 1.6 0.0 0.00 0.00 0.00 43 1021.0
20260502213502 25 63 3.2 0.0 0.00 0.00 0.00 43 1021.1
20260502213057 25 42 3.2 0.0 0.00 0.00 0.00 44 1021.1
20260502212532 25 74 3.2 0.0 0.00 0.00 0.00 44 1021.2
20260502212003 25 70 3.2 0.0 0.00 0.00 0.00 45 1021.3
20260502211558 25 300 3.2 0.0 0.00 0.00 0.00 42 1021.3
20260502211026 25 51 3.2 0.0 0.00 0.00 0.00 43 1021.5
20260502210605 25 79 3.2 0.0 0.00 0.00 0.00 45 1021.5
20260502210054 25 73 3.2 0.0 0.00 0.00 0.00 43 1021.6
20260502205523 25 65 3.2 0.0 0.00 0.00 0.00 42 1021.8
20260502205102 25 337 3.2 0.0 0.00 0.00 0.00 43 1021.8
20260502204617 25 84 3.2 0.0 0.00 0.00 0.00 42 1021.8
20260502204034 24 65 3.2 0.0 0.00 0.00 0.00 45 1022.0
20260502203507 24 331 3.2 0.0 0.00 0.00 0.00 43 1022.0
20260502203018 24 340 3.2 0.0 0.00 0.00 0.00 43 1022.0
20260502202551 23 161 3.2 0.0 0.00 0.00 0.00 45 1022.0
20260502202022 23 344 3.2 0.0 0.00 0.00 0.00 44 1022.0
20260502201525 24 340 3.2 0.0 0.00 0.00 0.00 41 1022.1
20260502201105 25 67 3.2 0.0 0.00 0.00 0.00 41 1022.1
20260502200534 24 28 3.2 0.0 0.00 0.00 0.00 44 1022.1
20260502200044 24 128 3.2 0.0 0.00 0.00 0.00 45 1022.1
20260502195517 23 81 4.8 0.0 0.00 0.00 0.00 43 1022.0
20260502195050 23 360 4.8 0.0 0.00 0.00 0.00 43 1022.2
20260502194538 23 81 3.2 0.0 0.00 0.00 0.00 43 1022.1
20260502194014 23 315 3.2 0.0 0.00 0.00 0.00 43 1022.2
20260502193547 23 355 3.2 0.0 0.00 0.00 0.00 46 1022.3
20260502193036 23 355 4.8 0.0 0.00 0.00 0.00 44 1022.3
20260502192507 23 31 3.2 0.0 0.00 0.00 0.00 44 1022.3
20260502192043 23 77 3.2 0.0 0.00 0.00 0.00 48 1022.3
20260502191532 23 346 3.2 0.0 0.00 0.00 0.00 50 1022.4
20260502191005 22 94 1.6 0.0 0.00 0.00 0.00 51 1022.3
20260502190543 22 30 3.2 0.0 0.00 0.00 0.00 48 1022.3
20260502190036 22 355 1.6 0.0 0.00 0.00 0.00 51 1022.4
20260502185511 22 351 1.6 0.0 0.00 0.00 0.00 50 1022.5
20260502185047 22 315 3.2 0.0 0.00 0.00 0.00 47 1022.5
20260502184537 22 360 3.2 0.0 0.00 0.00 0.00 51 1022.5
20260502184009 22 92 3.2 0.0 0.00 0.00 0.00 51 1022.6
20260502183549 22 360 4.8 0.0 0.00 0.00 0.00 48 1022.6
20260502183055 22 90 3.2 0.0 0.00 0.00 0.00 50 1022.8
20260502182531 22 81 3.2 0.0 0.00 0.00 0.00 54 1022.8
20260502182003 22 349 3.2 0.0 0.00 0.00 0.00 54 1023.0
20260502181505 21 52 3.2 0.0 0.00 0.00 0.00 53 1023.0
20260502181044 21 355 3.2 0.0 0.00 0.00 0.00 54 1023.3
20260502180518 21 344 3.2 0.0 0.00 0.00 0.00 55 1023.4
20260502164050 19 360 3.2 0.0 0.00 0.00 0.00 65 1024.3
20260502163520 18 76 3.2 0.0 0.00 0.00 0.00 64 1024.3
20260502163026 18 340 4.8 0.0 0.00 0.00 0.00 64 1024.3
20260502162605 18 319 4.8 0.0 0.00 0.00 0.00 63 1024.3
20260502162036 18 360 3.2 0.0 0.00 0.00 0.00 65 1024.4
20260502161536 18 348 3.2 0.0 0.00 0.00 0.00 64 1024.5
20260502161010 18 291 3.2 0.0 0.00 0.00 0.00 63 1024.5
20260502160547 18 74 1.6 0.0 0.00 0.00 0.00 65 1024.5
20260502152100 16 313 1.6 0.0 0.00 0.00 0.00 70 1024.3
20260502151605 16 313 1.6 0.0 0.00 0.00 0.00 70 1024.3
20260502151034 16 273 3.2 0.0 0.00 0.00 0.00 72 1024.3
20260502150507 16 273 3.2 0.0 0.00 0.00 0.00 74 1024.3
20260502150112 16 273 3.2 0.0 0.00 0.00 0.00 76 1024.3
20260502130503 10 18 3.2 0.0 0.00 0.00 0.00 93 1023.2
20260502130108 10 18 3.2 0.0 0.00 0.00 0.00 93 1023.2
20260502123519 8 18 0.0 0.0 0.00 0.00 0.00 93 1022.9
20260502123027 8 18 0.0 0.0 0.00 0.00 0.00 93 1022.8
20260502122601 8 18 0.0 0.0 0.00 0.00 0.00 93 1022.7
20260502122033 8 18 0.0 0.0 0.00 0.00 0.00 93 1022.7
20260502121538 8 18 0.0 0.0 0.00 0.00 0.00 93 1022.6
20260502121013 8 18 0.0 0.0 0.00 0.00 0.00 93 1022.5
20260502120550 8 18 0.0 0.0 0.00 0.00 0.00 93 1022.4
20260502115522 8 18 0.0 0.0 0.00 0.00 0.00 93 1022.1
20260502115101 8 18 0.0 0.0 0.00 0.00 0.00 93 1022.0
20260502114604 8 18 0.0 0.0 0.00 0.00 0.00 93 1021.8
20260502114032 8 18 0.0 0.0 0.00 0.00 0.00 93 1021.7
20260502113505 8 18 0.0 0.0 0.00 0.00 0.00 93 1021.7
20260502113056 8 18 1.6 0.0 0.00 0.00 0.00 93 1021.7
20260502112532 8 18 0.0 0.0 0.00 0.00 0.00 93 1021.7
20260502112001 8 18 0.0 0.0 0.00 0.00 0.00 93 1021.6
20260502111556 8 18 0.0 0.0 0.00 0.00 0.00 93 1021.6
20260502111030 8 18 0.0 0.0 0.00 0.00 0.00 93 1021.5
20260502110506 8 18 0.0 0.0 0.00 0.00 0.00 93 1021.3
20260502110058 8 18 1.6 0.0 0.00 0.00 0.00 93 1021.2
20260502105534 8 18 0.0 0.0 0.00 0.00 0.00 93 1021.1
20260502105006 8 18 0.0 0.0 0.00 0.00 0.00 93 1020.9
20260502104559 8 18 0.0 0.0 0.00 0.00 0.00 93 1020.8
20260502104033 8 18 0.0 0.0 0.00 0.00 0.00 93 1020.5
20260502103501 8 18 0.0 0.0 0.00 0.00 0.00 93 1020.4
20260502103006 8 18 0.0 0.0 0.00 0.00 0.00 93 1020.3
20260502102543 8 18 0.0 0.0 0.00 0.00 0.00 93 1020.3
20260502102015 8 18 0.0 0.0 0.00 0.00 0.00 93 1020.4
20260502101517 8 18 0.0 0.0 0.00 0.00 0.00 93 1020.4
20260502101055 8 18 1.6 0.0 0.00 0.00 0.00 93 1020.3
20260502100532 8 18 0.0 0.0 0.00 0.00 0.00 93 1020.3
20260502091511 8 18 1.6 0.0 0.00 0.00 0.00 93 1020.3
20260502091052 8 18 1.6 0.0 0.00 0.00 0.00 93 1020.3
20260502090522 9 18 1.6 0.0 0.00 0.00 0.00 93 1020.2
20260502071028 10 18 1.6 0.0 0.00 0.00 0.00 93 1019.9
20260502070604 10 18 1.6 0.0 0.00 0.00 0.00 93 1019.9
20260502070003 10 18 1.6 0.0 0.00 0.00 0.00 93 1019.9
20260502065541 10 18 1.6 0.0 0.00 0.00 0.00 93 1020.0
20260502065018 10 18 1.6 0.0 0.00 0.00 0.00 93 1020.0
20260502064520 10 18 1.6 0.0 0.00 0.00 0.00 93 1019.8
20260502064053 10 18 1.6 0.0 0.00 0.00 0.00 93 1019.8
20260502063530 10 18 1.6 0.0 0.00 0.00 0.00 93 1019.8
20260502063044 10 18 0.0 0.0 0.00 0.00 0.00 93 1019.8
20260502062509 10 18 0.0 0.0 0.00 0.00 0.00 93 1019.8
20260502062041 10 18 0.0 0.0 0.00 0.00 0.00 93 1019.8
20260502061550 10 18 0.0 0.0 0.00 0.00 0.00 93 1019.8
20260502061018 10 18 0.0 0.0 0.00 0.00 0.00 93 1019.6
20260502060554 10 18 0.0 0.0 0.00 0.00 0.00 93 1019.6
20260502060100 10 18 0.0 0.0 0.00 0.00 0.00 93 1019.6
20260502055530 10 18 0.0 0.0 0.00 0.00 0.00 93 1019.7
20260502055002 10 18 0.0 0.0 0.00 0.00 0.00 93 1019.8
20260502054601 10 18 1.6 0.0 0.00 0.00 0.00 93 1019.7
20260502054029 11 18 1.6 0.0 0.00 0.00 0.00 93 1019.9
20260502053506 11 18 1.6 0.0 0.00 0.00 0.00 93 1019.9
20260502053103 11 18 1.6 0.0 0.00 0.00 0.00 93 1019.9
20260502052525 11 18 1.6 0.0 0.00 0.00 0.00 93 1019.8
20260502052003 11 18 1.6 0.0 0.00 0.00 0.00 93 1019.8
20260502051505 11 18 0.0 0.0 0.00 0.00 0.00 93 1019.8
20260502051044 11 18 0.0 0.0 0.00 0.00 0.00 93 1019.7
20260502050520 11 18 0.0 0.0 0.00 0.00 2.72 93 1019.6
20260502050002 11 18 0.0 0.0 0.00 0.00 2.72 93 1019.5
20260502045541 11 18 0.0 0.0 0.00 0.00 2.72 93 1019.4
20260502045016 11 18 0.0 0.0 0.00 0.00 2.72 93 1019.4
20260502044613 11 18 0.0 0.0 0.00 0.00 2.72 93 1019.5
20260502044035 11 18 0.0 0.0 0.00 0.00 2.72 93 1019.5
20260502043514 11 18 0.0 0.0 0.00 0.00 2.72 93 1019.5
20260502043103 11 18 0.0 0.0 0.00 0.00 2.72 93 1019.4
20260502042534 11 18 0.0 0.0 0.00 0.00 2.72 93 1019.3
20260502042010 11 18 0.0 0.0 0.00 0.00 2.72 93 1019.3
20260502041518 12 18 0.0 0.0 0.00 0.00 2.72 93 1019.3
20260502041054 12 18 1.6 0.0 0.00 0.00 2.72 93 1019.3
20260502040523 12 18 1.6 0.0 0.00 0.00 2.72 93 1019.4
20260502040028 12 18 1.6 0.0 0.00 0.00 2.72 93 1019.3
20260502035605 12 18 0.0 0.0 0.00 0.00 2.72 93 1019.4
20260502035034 12 18 0.0 0.0 0.00 0.00 2.72 93 1019.3
20260502034540 12 18 1.6 0.0 0.00 0.00 2.72 93 1019.5
20260502034009 12 18 0.0 0.0 0.00 0.00 2.72 93 1019.4
20260502033547 12 18 1.6 0.0 0.00 0.00 2.72 93 1019.3
20260502033032 12 18 1.6 0.0 0.00 0.00 2.72 93 1019.3
20260502032506 12 18 1.6 0.0 0.00 0.00 2.72 93 1019.4
20260502032046 12 18 0.0 0.0 0.00 0.00 2.72 93 1019.4
20260502031532 12 18 1.6 0.0 0.00 0.00 2.72 93 1019.3
20260502031002 12 18 1.6 0.0 0.00 0.00 2.72 93 1019.2
20260502030543 12 18 1.6 0.0 0.00 0.00 2.72 93 1019.2
20260502030050 12 18 1.6 0.0 0.00 0.00 2.72 93 1019.2
20260502025520 12 18 1.6 0.0 0.00 0.00 2.72 93 1019.1
20260502025103 12 18 1.6 0.0 0.00 0.00 2.72 93 1019.0
20260502024509 12 18 0.0 0.0 0.00 0.00 2.72 93 1018.9
20260502024045 12 18 0.0 0.0 0.00 0.00 2.72 93 1018.8
20260502023515 12 18 0.0 0.0 0.00 0.00 2.72 93 1018.8
20260502023024 12 18 0.0 0.0 0.00 0.00 2.72 93 1018.8
20260502022556 12 18 1.6 0.0 0.00 0.00 2.72 93 1018.7
20260502022029 12 18 1.6 0.0 0.00 0.00 2.72 93 1018.7
20260502021533 12 18 0.0 0.0 0.00 0.00 2.72 93 1018.5
20260502021006 12 47 0.0 0.0 0.00 0.00 2.72 93 1018.4
20260502020542 12 71 0.0 0.0 0.00 0.00 2.72 93 1018.2
20260502020048 12 71 0.0 0.0 0.00 0.00 2.72 93 1018.0
20260502015522 12 71 0.0 0.0 0.00 0.00 2.72 93 1017.8
20260502015058 12 71 0.0 0.0 0.00 0.00 2.72 93 1017.8
20260502014544 12 71 0.0 0.0 0.00 0.00 2.72 93 1017.7
20260502014021 12 71 0.0 0.0 0.00 0.00 2.72 93 1017.6
20260502013556 12 71 0.0 0.0 0.00 0.00 2.72 93 1017.6
20260502013046 12 71 0.0 0.0 0.00 0.00 2.72 93 1017.5
20260502012521 12 71 1.6 0.0 0.00 0.00 2.72 93 1017.5
20260502012058 12 72 1.6 0.0 0.00 0.00 2.72 93 1017.5
20260502011547 12 70 1.6 0.0 0.00 0.00 2.72 93 1017.3
20260502011020 12 71 1.6 0.0 0.00 0.00 2.72 93 1017.3
20260502010601 12 71 1.6 0.0 0.00 0.00 2.72 93 1017.2
20260502010051 12 46 1.6 0.0 0.00 0.00 2.72 93 1017.2
20260502005518 12 351 1.6 0.0 0.00 0.00 2.72 93 1017.0
20260502005100 12 24 1.6 0.0 0.00 0.00 2.72 93 1016.9
20260502004604 12 24 1.6 0.0 0.00 0.00 2.72 93 1016.8
20260502004031 12 351 1.6 0.0 0.00 0.00 2.72 93 1016.6
20260502003606 12 335 1.6 0.0 0.00 0.00 2.72 93 1016.6
20260502003056 12 15 1.6 0.0 0.00 0.00 2.72 93 1016.6
20260502002529 12 55 1.6 0.0 0.00 0.00 2.72 93 1016.5
20260502002002 12 61 1.6 0.0 0.00 0.00 2.72 93 1016.5
20260502001508 12 269 3.2 0.0 0.00 0.00 2.72 93 1016.3
20260502001040 12 82 3.2 0.0 0.00 0.00 2.72 93 1016.2